Location: Kouchibouguac National Park
(46.8081°N, 64.9088°W)
Time: 17:15:09
(UTC-03:00)

Amateur Radio Satellites - All Passes

Search period start: 30 August 2014 16:45
Search period end: 31 August 2014 16:45
Location: Kouchibouguac National Park, 46.8081°N, 64.9088°W

Satellite Date Start Highest point End Downlink Frequencies (MHz)
Time Altitude Azimuth
AO-7 30 Aug 16:45:48 16:54:10 80° 252° (WSW) 17:02:33 29.400 - 29.500 MHz
JAS-2 30 Aug 16:58:02 17:02:09 20° 60° (ENE) 17:06:02 435.800 - 435.900 CW/SSB, 435.910 FM
RS-15 30 Aug 17:01:05 17:12:11 81° 51° (NE) 17:23:41 29.354 - 29.394 USB, Beacon 29.352 USB
TMSAT-1 30 Aug 17:13:30 17:15:51 13° 273° (W) 17:18:13 436.925 FM
Oscar 10/S400 30 Aug 17:17:53 17:31:29 22° 141° (SE) 17:49:22 145.825 - 145.975 CW/USB, Beacon 145.810 USB
OPAL 30 Aug 17:30:21 17:35:16 39° 100° (E) 17:40:07 ?
Hamsat 30 Aug 17:33:26 17:37:09 29° 67° (ENE) 17:40:54 145.90 MHz
Sapphire 30 Aug 17:39:46 17:44:59 52° 116° (ESE) 17:50:15 437.095 MHz 1200 baud AX-25 AFSK
Uosat F 30 Aug 17:52:44 17:56:39 23° 267° (W) 18:00:36 435.120 FM
ISS 30 Aug 18:07:22 18:10:07 24° 220° (SW) 18:12:52 145.800 FM
PCSat 30 Aug 18:09:02 18:14:27 89° 302° (WNW) 18:19:56 145.825 MHz
SO-67 30 Aug 18:38:35 18:40:59 18° 66° (ENE) 18:43:22 435.3500 MHz FM
JAS-2 30 Aug 18:40:44 18:46:51 72° 257° (WSW) 18:52:21 435.800 - 435.900 CW/SSB, 435.910 FM
AO-7 30 Aug 18:42:56 18:48:14 18° 273° (W) 18:53:33 29.400 - 29.500 MHz
HO-68 30 Aug 18:52:52 18:55:18 12° 41° (NE) 18:57:44 435.675 MHz FM
Hamsat 30 Aug 19:09:12 19:13:03 31° 265° (W) 19:16:57 145.90 MHz
OPAL 30 Aug 19:09:25 19:14:02 33° 298° (WNW) 19:18:39 ?
STRAND 1 30 Aug 19:14:12 19:18:06 22° 92° (E) 19:21:59 ?
RS-15 30 Aug 19:14:15 19:23:30 32° 254° (WSW) 19:33:04 29.354 - 29.394 USB, Beacon 29.352 USB
Sapphire 30 Aug 19:23:51 19:28:40 32° 317° (NW) 19:33:31 437.095 MHz 1200 baud AX-25 AFSK
PCSat 30 Aug 19:54:33 19:58:39 21° 324° (NW) 20:02:46 145.825 MHz
SO-67 30 Aug 20:10:39 20:13:49 33° 263° (W) 20:17:00 435.3500 MHz FM
JAS-2 30 Aug 20:32:03 20:32:46 10° 274° (W) 20:33:29 435.800 - 435.900 CW/SSB, 435.910 FM
HO-68 30 Aug 20:34:35 20:41:20 48° 63° (ENE) 20:48:07 435.675 MHz FM
STRAND 1 30 Aug 20:52:39 20:57:37 54° 290° (WNW) 21:02:34 ?
UKube-1 30 Aug 20:55:10 20:58:45 26° 65° (ENE) 21:02:20 145.840 MHz, 145.915 MHz
Oscar 11 30 Aug 21:02:00 21:05:04 19° 62° (ENE) 21:08:09 145.825 FM, Beacon 2401.500 USB
Sapphire 30 Aug 21:12:24 21:13:55 11° 341° (NNW) 21:15:25 437.095 MHz 1200 baud AX-25 AFSK
FUNcube-1 30 Aug 21:28:15 21:30:31 14° 60° (ENE) 21:32:49 145.950 - 145.970 MHz USB
MaSat-1 30 Aug 21:32:10 21:35:10 16° 38° (NE) 21:37:58 437.345 MHz
HO-68 30 Aug 22:22:35 22:29:10 39° 263° (W) 22:35:47 435.675 MHz FM
UKube-1 30 Aug 22:30:48 22:34:49 36° 262° (W) 22:38:50 145.840 MHz, 145.915 MHz
Oscar 11 30 Aug 22:36:41 22:40:54 50° 260° (W) 22:45:10 145.825 FM, Beacon 2401.500 USB
FUNcube-1 30 Aug 23:02:13 23:06:23 68° 258° (WSW) 23:10:40 145.950 - 145.970 MHz USB
MaSat-1 30 Aug 23:08:18 23:13:04 85° 61° (ENE) 23:17:10 437.345 MHz
Saudisat 1A 30 Aug 23:22:19 23:26:36 52° 121° (ESE) 23:30:54 436.775 MHz
PCSat 30 Aug 23:29:37 23:30:34 10° 17° (NNE) 23:31:31 145.825 MHz
AO-40 30 Aug 23:40:33 02:03:42 26° 203° (SSW) 06:11:17 Beacon 2401.320
KITSAT 1 30 Aug 23:57:39 00:05:22 52° 114° (ESE) 00:13:08 435.175 FM
Sapphire 31 Aug 00:42:01 00:45:55 20° 34° (NE) 00:49:48 437.095 MHz 1200 baud AX-25 AFSK
MaSat-1 31 Aug 00:47:46 00:49:07 11° 262° (W) 00:50:25 437.345 MHz
Saudisat 1A 31 Aug 01:02:41 01:06:26 27° 321° (NW) 01:10:13 436.775 MHz
PCSat 31 Aug 01:11:13 01:15:55 29° 42° (NE) 01:20:35 145.825 MHz
KITSAT 1 31 Aug 01:53:08 02:00:54 48° 317° (NW) 02:08:43 435.175 FM
Oscar 16 31 Aug 01:56:53 02:00:50 21° 92° (E) 02:04:45 437.025 USB, Beacon 2401.1428
JAS-1B 31 Aug 02:03:33 02:05:45 12° 79° (E) 02:07:51 435.800 - 435.900 CW/SSB
Uribyol 2 31 Aug 02:06:14 02:07:55 11° 86° (E) 02:09:35 436.500 FM
AO-27 31 Aug 02:24:03 02:27:18 17° 89° (E) 02:30:32 436.795 MHz FM
Sapphire 31 Aug 02:24:47 02:30:15 78° 56° (NE) 02:35:40 437.095 MHz 1200 baud AX-25 AFSK
Gurwin Techsat 1B 31 Aug 02:53:00 02:55:50 14° 88° (E) 02:58:38 435.225 FM
PCSat 31 Aug 02:54:22 02:59:43 61° 242° (WSW) 03:05:02 145.825 MHz
Oscar 19 31 Aug 03:00:23 03:05:37 73° 103° (ESE) 03:10:48 437.125 CW, 437.150 USB
OPAL 31 Aug 03:11:54 03:14:59 16° 54° (NE) 03:18:06 ?
AO-Echo 31 Aug 03:26:55 03:31:36 64° 102° (ESE) 03:36:16 ?
ITAMSAT 1 31 Aug 03:33:03 03:38:13 64° 102° (ESE) 03:43:22 435.822 SSB
SO-50 31 Aug 03:34:00 03:37:10 19° 112° (ESE) 03:40:22 436.795 FM
Oscar 16 31 Aug 03:35:26 03:40:32 56° 290° (WNW) 03:45:36 437.025 USB, Beacon 2401.1428
Uribyol 2 31 Aug 03:42:58 03:48:12 83° 104° (ESE) 03:53:24 436.500 FM
TMSAT-1 31 Aug 03:43:10 03:47:46 29° 94° (E) 03:52:21 436.925 FM
JAS-1B 31 Aug 03:51:03 03:58:03 76° 103° (ESE) 04:04:01 435.800 - 435.900 CW/SSB
KITSAT 1 31 Aug 03:52:33 03:58:32 22° 344° (NNW) 04:04:33 435.175 FM
AO-27 31 Aug 04:02:11 04:07:22 72° 287° (WNW) 04:12:32 436.795 MHz FM
Sapphire 31 Aug 04:09:30 04:13:01 18° 255° (WSW) 04:16:31 437.095 MHz 1200 baud AX-25 AFSK
Uosat F 31 Aug 04:19:43 04:21:30 12° 87° (E) 04:23:15 435.120 FM
Gurwin Techsat 1B 31 Aug 04:31:08 04:36:29 84° 286° (WNW) 04:41:48 435.225 FM
Oscar 19 31 Aug 04:40:53 04:44:24 19° 302° (WNW) 04:47:54 437.125 CW, 437.150 USB
AO-7 31 Aug 04:44:40 04:51:41 29° 94° (E) 04:58:37 29.400 - 29.500 MHz
OPAL 31 Aug 04:48:06 04:53:11 86° 253° (WSW) 04:58:23 ?
AO-Echo 31 Aug 05:06:50 05:09:56 18° 300° (WNW) 05:13:01 ?
SO-50 31 Aug 05:12:49 05:17:16 62° 311° (NW) 05:21:51 436.795 FM
ITAMSAT 1 31 Aug 05:13:30 05:17:15 21° 301° (WNW) 05:21:01 435.822 SSB
TMSAT-1 31 Aug 05:22:51 05:27:49 42° 293° (WNW) 05:32:47 436.925 FM
Uribyol 2 31 Aug 05:23:50 05:27:02 17° 303° (WNW) 05:30:13 436.500 FM
UOSAT-12 31 Aug 05:31:52 05:35:32 24° 113° (ESE) 05:39:15 437.025 FM, 437.400 FM
JAS-1B 31 Aug 05:42:36 05:47:49 23° 308° (NW) 05:52:30 435.800 - 435.900 CW/SSB
AO-27 31 Aug 05:43:57 05:46:00 12° 307° (NW) 05:48:02 436.795 MHz FM
KITSAT 1 31 Aug 05:51:25 05:57:19 21° 14° (NNE) 06:03:12 435.175 FM
Uosat F 31 Aug 05:55:59 06:01:01 88° 105° (ESE) 06:06:02 435.120 FM
Saudisat 1A 31 Aug 06:07:23 06:10:40 20° 34° (NNE) 06:13:57 436.775 MHz
Gurwin Techsat 1B 31 Aug 06:12:51 06:15:40 15° 305° (NW) 06:18:29 435.225 FM
OPAL 31 Aug 06:30:54 06:32:50 12° 271° (W) 06:34:48 ?
Oscar 10/S400 31 Aug 06:31:21 07:07:20 12° 256° (WSW) 07:59:35 145.825 - 145.975 CW/USB, Beacon 145.810 USB
STRAND 1 31 Aug 06:32:44 06:37:30 42° 67° (ENE) 06:42:18 ?
AO-7 31 Aug 06:36:53 06:45:07 71° 294° (WNW) 06:53:19 29.400 - 29.500 MHz
Hamsat 31 Aug 06:51:38 06:55:43 38° 97° (E) 06:59:44 145.90 MHz
SO-50 31 Aug 06:55:58 06:58:47 16° 333° (NNW) 07:01:38 436.795 FM
UOSAT-12 31 Aug 07:10:49 07:15:22 54° 313° (NW) 07:20:01 437.025 FM, 437.400 FM
RS-15 31 Aug 07:29:14 07:38:51 37° 108° (ESE) 07:48:20 29.354 - 29.394 USB, Beacon 29.352 USB
JAS-2 31 Aug 07:30:56 07:36:10 76° 104° (ESE) 07:41:45 435.800 - 435.900 CW/SSB, 435.910 FM
SO-67 31 Aug 07:32:28 07:34:18 14° 91° (E) 07:36:08 435.3500 MHz FM
Uosat F 31 Aug 07:36:22 07:39:07 15° 304° (NW) 07:41:53 435.120 FM
Saudisat 1A 31 Aug 07:46:23 07:50:49 83° 234° (SW) 07:55:14 436.775 MHz
KITSAT 1 31 Aug 07:47:21 07:55:04 45° 42° (NE) 08:02:44 435.175 FM
STRAND 1 31 Aug 08:12:31 08:16:51 28° 266° (W) 08:21:12 ?
Hamsat 31 Aug 08:27:58 08:31:29 24° 295° (WNW) 08:34:59 145.90 MHz
AO-7 31 Aug 08:30:59 08:36:33 20° 316° (NW) 08:42:07 29.400 - 29.500 MHz
UOSAT-12 31 Aug 08:53:51 08:56:35 15° 335° (NNW) 08:59:20 437.025 FM, 437.400 FM
SO-67 31 Aug 09:04:17 09:07:35 41° 288° (WNW) 09:10:51 435.3500 MHz FM
JAS-2 31 Aug 09:17:30 09:20:47 17° 302° (WNW) 09:24:09 435.800 - 435.900 CW/SSB, 435.910 FM
Saudisat 1A 31 Aug 09:28:36 09:29:39 11° 252° (WSW) 09:30:43 436.775 MHz
RS-15 31 Aug 09:39:21 09:50:23 73° 311° (NW) 10:01:22 29.354 - 29.394 USB, Beacon 29.352 USB
KITSAT 1 31 Aug 09:42:53 09:50:43 56° 244° (WSW) 09:58:30 435.175 FM
HO-68 31 Aug 09:46:24 09:52:55 37° 96° (E) 09:59:25 435.675 MHz FM
UKube-1 31 Aug 10:16:02 10:19:52 30° 96° (E) 10:23:40 145.840 MHz, 145.915 MHz
SO-50 31 Aug 10:21:45 10:24:08 14° 23° (NNE) 10:26:32 436.795 FM
Oscar 11 31 Aug 10:21:48 10:25:22 24° 93° (E) 10:28:54 145.825 FM, Beacon 2401.500 USB
FUNcube-1 31 Aug 10:48:53 10:52:15 20° 92° (E) 10:55:38 145.950 - 145.970 MHz USB
ISS 31 Aug 10:51:34 10:54:17 23° 139° (SE) 10:57:01 145.800 FM
HO-68 31 Aug 11:33:58 11:40:50 51° 296° (WNW) 11:47:40 435.675 MHz FM
KITSAT 1 31 Aug 11:42:56 11:44:19 11° 264° (W) 11:45:41 435.175 FM
UKube-1 31 Aug 11:52:14 11:56:03 30° 294° (WNW) 11:59:50 145.840 MHz, 145.915 MHz
RS-15 31 Aug 11:55:11 12:04:53 34° 341° (NNW) 12:14:41 29.354 - 29.394 USB, Beacon 29.352 USB
Oscar 11 31 Aug 11:57:37 12:01:40 37° 291° (WNW) 12:05:41 145.825 FM, Beacon 2401.500 USB
SO-50 31 Aug 12:01:19 12:05:54 44° 45° (NE) 12:10:31 436.795 FM
UOSAT-12 31 Aug 12:18:30 12:21:07 14° 24° (NNE) 12:23:43 437.025 FM, 437.400 FM
FUNcube-1 31 Aug 12:24:32 12:28:53 48° 289° (WNW) 12:33:18 145.950 - 145.970 MHz USB
ISS 31 Aug 12:27:28 12:30:47 69° 337° (NNW) 12:34:07 145.800 FM
Oscar 19 31 Aug 12:42:38 12:46:31 22° 60° (ENE) 12:50:24 437.125 CW, 437.150 USB
JAS-1B 31 Aug 12:48:18 12:55:25 25° 54° (NE) 13:01:53 435.800 - 435.900 CW/SSB
MaSat-1 31 Aug 12:59:22 13:03:14 23° 104° (ESE) 13:07:15 437.345 MHz
AO-Echo 31 Aug 13:06:16 13:09:22 17° 59° (ENE) 13:12:26 ?
Oscar 16 31 Aug 13:16:25 13:21:14 41° 67° (ENE) 13:26:05 437.025 USB, Beacon 2401.1428
ITAMSAT 1 31 Aug 13:16:33 13:20:16 21° 59° (ENE) 13:24:00 435.822 SSB
HO-68 31 Aug 13:24:04 13:26:57 13° 317° (NW) 13:29:50 435.675 MHz FM
Uribyol 2 31 Aug 13:25:49 13:29:58 25° 62° (ENE) 13:34:08 436.500 FM
TMSAT-1 31 Aug 13:32:07 13:32:59 10° 51° (NE) 13:33:52 436.925 FM
SO-50 31 Aug 13:42:09 13:46:21 31° 244° (WSW) 13:50:35 436.795 FM
AO-27 31 Aug 13:44:36 13:49:14 34° 65° (ENE) 13:53:53 436.795 MHz FM
UOSAT-12 31 Aug 13:57:46 14:02:24 49° 46° (NE) 14:06:57 437.025 FM, 437.400 FM
AO-7 31 Aug 13:59:08 14:03:30 16° 38° (NE) 14:07:52 29.400 - 29.500 MHz
ISS 31 Aug 14:04:47 14:07:52 34° 357° (N) 14:10:58 145.800 FM
RS-15 31 Aug 14:11:36 14:21:15 33° 16° (NNE) 14:31:04 29.354 - 29.394 USB, Beacon 29.352 USB
Gurwin Techsat 1B 31 Aug 14:16:18 14:20:54 31° 64° (ENE) 14:25:31 435.225 FM
Oscar 19 31 Aug 14:20:20 14:25:26 60° 259° (W) 14:30:35 437.125 CW, 437.150 USB
MaSat-1 31 Aug 14:34:57 14:39:53 57° 304° (WNW) 14:45:00 437.345 MHz
JAS-1B 31 Aug 14:35:14 14:45:00 84° 72° (ENE) 14:53:37 435.800 - 435.900 CW/SSB
AO-Echo 31 Aug 14:42:37 14:47:38 74° 257° (WSW) 14:52:31 ?
ITAMSAT 1 31 Aug 14:54:10 14:59:18 65° 258° (WSW) 15:04:28 435.822 SSB
Oscar 16 31 Aug 14:56:15 15:00:42 29° 265° (W) 15:05:13 437.025 USB, Beacon 2401.1428
Uribyol 2 31 Aug 15:04:09 15:09:09 50° 260° (W) 15:14:11 436.500 FM
TMSAT-1 31 Aug 15:06:40 15:11:51 60° 71° (ENE) 15:17:04 436.925 FM
AO-27 31 Aug 15:23:59 15:28:43 36° 263° (W) 15:33:29 436.795 MHz FM
Uosat F 31 Aug 15:34:48 15:38:46 24° 62° (ENE) 15:42:45 435.120 FM
UOSAT-12 31 Aug 15:38:23 15:42:19 26° 245° (WSW) 15:46:12 437.025 FM, 437.400 FM
ISS 31 Aug 15:41:46 15:45:02 50° 17° (NNE) 15:48:18 145.800 FM
AO-7 31 Aug 15:46:30 15:54:28 53° 61° (ENE) 16:02:26 29.400 - 29.500 MHz
Gurwin Techsat 1B 31 Aug 15:55:44 16:00:44 41° 262° (W) 16:05:46 435.225 FM
PCSat 31 Aug 16:00:28 16:01:31 11° 101° (E) 16:02:34 145.825 MHz
MaSat-1 31 Aug 16:15:20 16:18:01 14° 324° (NW) 16:20:43 437.345 MHz
JAS-1B 31 Aug 16:28:23 16:36:10 27° 270° (W) 16:43:21 435.800 - 435.900 CW/SSB
